FW0780 Weather Reports


time (UTC)temp
F
wind
direction
speed
knots
gust
knots
rain 1hr
in
rain 24hr
in
rain mn
in
humidity
%
barometer
mb
20260508043058 53 207 1.7 4.3 0.00 0.28 0.03 93 1014.2
20260508041552 53 257 0.9 3.5 0.00 0.28 0.03 93 1014.0
20260508040045 53 224 1.7 7.0 0.00 0.28 0.03 93 1014.0
20260508034545 53 217 1.7 7.8 0.00 0.28 0.03 93 1013.5
20260508033141 53 217 1.7 6.1 0.00 0.28 0.03 94 1013.5
20260508031537 53 267 2.6 8.7 0.00 0.28 0.03 93 1013.3
20260508030041 54 239 2.6 6.1 0.00 0.28 0.03 93 1013.5
20260508024533 54 246 3.5 7.0 0.01 0.28 0.03 94 1013.3
20260508023031 54 225 2.6 6.1 0.01 0.28 0.03 93 1013.1
20260508021530 54 243 2.6 7.0 0.01 0.28 0.03 94 1013.0
20260508020033 55 238 3.5 7.8 0.01 0.28 0.03 93 1013.0
20260508014525 55 189 2.6 6.1 0.00 0.28 0.02 94 1013.1
20260508013026 55 182 1.7 4.3 0.00 0.28 0.02 94 1012.9
20260508011523 55 173 3.5 4.3 0.00 0.28 0.02 93 1012.9
20260508010026 55 173 1.7 3.5 0.00 0.28 0.02 93 1012.9
20260508004523 55 173 1.7 4.3 0.01 0.28 0.02 93 1012.9
20260508003021 55 173 0.0 1.7 0.01 0.28 0.02 93 1012.8
20260508001538 55 173 0.9 2.6 0.02 0.28 0.02 93 1012.9
20260508000021 55 173 1.7 2.6 0.02 0.28 0.02 93 1012.9
20260507234518 55 172 0.9 3.5 0.01 0.27 0.02 93 1012.7
20260507233018 55 172 2.6 4.3 0.01 0.27 0.02 93 1012.7
20260507231514 56 173 0.9 3.5 0.01 0.26 0.01 92 1012.9
20260507230011 56 173 2.6 4.3 0.01 0.26 0.01 93 1013.0
20260507224510 57 173 2.6 4.3 0.02 0.26 0.01 93 1013.2
20260507223008 57 219 0.9 2.6 0.02 0.26 0.01 92 1013.1
20260507221506 57 219 0.9 2.6 0.01 0.25 0.00 92 1013.0
20260507220007 57 219 1.7 3.5 0.02 0.25 0.00 92 1012.9
20260507214504 57 207 0.9 3.5 0.02 0.24 0.24 92 1012.9
20260507213002 57 207 1.7 6.1 0.03 0.24 0.24 92 1013.0
20260507211502 57 214 2.6 6.1 0.09 0.24 0.24 92 1012.8
20260507210059 57 219 2.6 7.0 0.09 0.24 0.24 92 1012.7
20260507204600 57 216 1.7 6.1 0.08 0.23 0.23 92 1012.5
20260507203054 57 224 2.6 6.1 0.06 0.21 0.21 91 1012.5
20260507201559 57 196 3.5 7.8 0.01 0.16 0.16 91 1012.4
20260507200103 57 195 3.5 7.8 0.00 0.15 0.15 91 1012.4
20260507194551 58 228 0.9 3.5 0.00 0.15 0.15 91 1012.2
20260507193052 58 229 0.9 2.6 0.00 0.15 0.15 90 1012.1
20260507191553 58 229 0.9 1.7 0.01 0.15 0.15 90 1011.8
20260507190052 58 229 0.0 1.7 0.02 0.15 0.15 89 1011.7
20260507184548 58 229 0.9 2.6 0.02 0.15 0.15 89 1011.5
20260507183043 58 229 0.9 4.3 0.02 0.15 0.15 88 1011.3
20260507181541 59 228 0.0 2.6 0.04 0.14 0.14 88 1011.2
20260507180040 59 228 0.0 2.6 0.06 0.13 0.13 87 1011.1
20260507174544 59 228 0.0 2.6 0.09 0.13 0.13 86 1010.9
20260507173037 59 228 0.0 2.6 0.09 0.13 0.13 84 1010.9
20260507171537 60 228 0.0 2.6 0.06 0.10 0.10 82 1010.8
20260507170042 60 228 0.9 3.5 0.04 0.08 0.08 81 1010.5
20260507164533 60 229 0.9 5.2 0.01 0.04 0.04 80 1010.3
20260507163032 62 192 0.9 6.1 0.01 0.04 0.04 81 1010.4
20260507161528 63 226 1.7 6.1 0.02 0.04 0.04 81 1010.3
20260507160027 64 182 2.6 5.2 0.02 0.04 0.04 79 1009.9
20260507154525 65 123 0.0 3.5 0.03 0.03 0.03 77 1010.0
20260507153024 66 117 0.9 2.6 0.03 0.03 0.03 74 1009.8
20260507151523 67 133 0.9 2.6 0.02 0.02 0.02 71 1009.8
20260507150031 69 112 1.7 3.5 0.02 0.02 0.02 66 1009.9
20260507144520 70 140 0.9 2.6 0.00 0.00 0.00 60 1009.7
20260507143025 70 132 1.7 8.7 0.00 0.00 0.00 58 1009.4
20260507141517 70 142 3.5 8.7 0.00 0.00 0.00 57 1009.2
20260507140116 71 164 0.9 7.0 0.00 0.00 0.00 57 1009.2
20260507134516 71 150 1.7 8.7 0.00 0.00 0.00 56 1009.1
20260507133016 72 180 6.1 10.4 0.00 0.00 0.00 55 1009.1
20260507131520 72 169 3.5 13.0 0.00 0.00 0.00 54 1009.0
20260507130015 72 173 5.2 13.0 0.00 0.00 0.00 54 1009.0
20260507124514 72 200 3.5 16.5 0.00 0.00 0.00 54 1008.9
20260507123014 72 148 2.6 9.6 0.00 0.00 0.00 55 1009.1
20260507121512 71 153 3.5 10.4 0.00 0.00 0.00 55 1009.2
20260507120023 71 181 4.3 13.9 0.00 0.00 0.00 53 1009.2
20260507114510 72 157 7.0 13.9 0.00 0.00 0.00 53 1009.1
20260507113009 72 140 7.0 12.2 0.00 0.00 0.00 55 1009.1
20260507111509 72 161 6.1 14.8 0.00 0.00 0.00 55 1008.9
20260507110007 72 132 2.6 12.2 0.00 0.00 0.00 55 1008.8
20260507104510 73 133 6.1 13.9 0.00 0.00 0.00 53 1008.7
20260507103006 73 126 6.1 14.8 0.00 0.00 0.00 51 1008.6
20260507101503 73 157 7.8 18.2 0.00 0.00 0.00 51 1008.5
20260507100001 73 129 7.0 15.6 0.00 0.00 0.00 51 1008.5
20260507094600 73 180 5.2 18.2 0.00 0.00 0.00 53 1008.5
20260507093059 72 136 5.2 12.2 0.00 0.00 0.00 54 1008.4
20260507091559 72 98 4.3 10.4 0.00 0.00 0.00 54 1008.3
20260507090057 72 131 4.3 13.0 0.00 0.00 0.00 54 1008.2
20260507084554 71 149 7.8 13.9 0.00 0.00 0.00 55 1008.1
20260507083048 70 123 6.1 13.0 0.00 0.00 0.00 57 1008.0
20260507081549 70 156 7.0 11.3 0.00 0.00 0.00 59 1007.9
20260507080048 70 132 4.3 10.4 0.00 0.00 0.00 60 1007.8
20260507073037 68 131 2.6 7.8 0.00 0.00 0.00 67 1007.9
20260507071535 67 118 1.7 6.1 0.00 0.00 0.00 67 1007.8
20260507070032 66 109 2.6 6.1 0.00 0.00 0.00 69 1007.6
20260507064529 66 136 2.6 6.1 0.00 0.00 0.00 71 1007.5
20260507063029 65 151 1.7 5.2 0.00 0.00 0.00 73 1007.5
20260507061524 64 190 0.9 6.1 0.00 0.00 0.00 73 1007.5
20260507060027 64 152 1.7 3.5 0.00 0.00 0.00 73 1007.3
20260507054521 63 153 1.7 3.5 0.00 0.00 0.00 73 1007.2
20260507053016 62 123 0.9 3.5 0.00 0.00 0.00 74 1007.2
20260507051515 61 124 0.9 2.6 0.00 0.00 0.00 74 1007.1
20260507050024 60 86 0.0 2.6 0.00 0.00 0.00 75 1007.1
20260507044510 59 26 0.0 1.7 0.00 0.00 0.00 76 1006.9